| time (UTC) | temp F | wind direction | speed MPH | gust MPH | rain 1hr in | rain 24hr in | rain mn in | humidity % | barometer mb |
| 20260831105518 | 77 | 63 | 0.0 | 1.0 | 0.00 | 0.15 | 0.15 | 98 | 1017.9 |
| 20260831104516 | 77 | 0.0 | 0.0 | 0.00 | 0.15 | 0.15 | 98 | 1017.9 | |
| 20260831103518 | 77 | 0.0 | 2.0 | 0.00 | 0.15 | 0.15 | 98 | 1017.8 | |
| 20260831102519 | 77 | 75 | 0.0 | 1.0 | 0.00 | 0.15 | 0.15 | 98 | 1017.8 |
| 20260831101519 | 77 | 75 | 0.0 | 1.0 | 0.00 | 0.15 | 0.15 | 98 | 1017.7 |
| 20260831100518 | 77 | 96 | 0.0 | 2.0 | 0.00 | 0.15 | 0.15 | 98 | 1017.7 |
| 20260831095517 | 77 | 0.0 | 0.0 | 0.00 | 0.15 | 0.15 | 98 | 1017.6 | |
| 20260831094518 | 77 | 104 | 0.0 | 1.0 | 0.00 | 0.15 | 0.15 | 98 | 1017.5 |
| 20260831093538 | 77 | 92 | 0.0 | 2.0 | 0.00 | 0.15 | 0.15 | 98 | 1017.5 |
| 20260831092517 | 77 | 50 | 0.0 | 1.0 | 0.00 | 0.15 | 0.15 | 98 | 1017.6 |
| 20260831091538 | 78 | 49 | 0.0 | 1.0 | 0.00 | 0.15 | 0.15 | 98 | 1017.3 |
| 20260831090520 | 78 | 0.0 | 1.0 | 0.00 | 0.15 | 0.15 | 98 | 1017.3 | |
| 20260831085518 | 78 | 49 | 0.0 | 1.0 | 0.01 | 0.15 | 0.15 | 98 | 1017.4 |
| 20260831084518 | 78 | 48 | 0.0 | 1.0 | 0.01 | 0.15 | 0.15 | 98 | 1017.4 |
| 20260831083518 | 78 | 58 | 0.0 | 1.0 | 0.01 | 0.15 | 0.15 | 98 | 1017.3 |
| 20260831082538 | 77 | 58 | 0.0 | 1.0 | 0.01 | 0.15 | 0.15 | 98 | 1017.3 |
| 20260831081518 | 77 | 116 | 0.0 | 1.0 | 0.01 | 0.15 | 0.15 | 98 | 1017.3 |
| 20260831080518 | 77 | 48 | 0.0 | 1.0 | 0.01 | 0.15 | 0.15 | 98 | 1017.2 |
| 20260831075518 | 77 | 0.0 | 1.0 | 0.00 | 0.14 | 0.14 | 98 | 1017.2 | |
| 20260831074518 | 77 | 0.0 | 1.0 | 0.00 | 0.14 | 0.14 | 98 | 1017.3 | |
| 20260831073518 | 77 | 61 | 0.0 | 1.0 | 0.00 | 0.14 | 0.14 | 98 | 1017.3 |
| 20260831072519 | 76 | 0.0 | 0.0 | 0.02 | 0.14 | 0.14 | 97 | 1017.3 | |
| 20260831071558 | 76 | 0.0 | 0.0 | 0.03 | 0.14 | 0.14 | 97 | 1017.2 | |
| 20260831070517 | 76 | 0.0 | 0.0 | 0.03 | 0.14 | 0.14 | 97 | 1017.4 | |
| 20260831065517 | 76 | 0.0 | 0.0 | 0.04 | 0.14 | 0.14 | 97 | 1017.5 | |
| 20260831064518 | 76 | 0.0 | 0.0 | 0.14 | 0.14 | 0.14 | 97 | 1017.6 | |
| 20260831063518 | 76 | 0.0 | 0.0 | 0.14 | 0.14 | 0.14 | 96 | 1017.8 | |
| 20260831062538 | 76 | 95 | 0.0 | 1.0 | 0.12 | 0.12 | 0.12 | 95 | 1018.1 |
| 20260831061517 | 76 | 95 | 0.0 | 1.0 | 0.11 | 0.11 | 0.11 | 94 | 1018.0 |
| 20260831060518 | 77 | 0.0 | 0.0 | 0.11 | 0.11 | 0.11 | 92 | 1018.2 | |
| 20260831055518 | 78 | 64 | 0.0 | 8.0 | 0.10 | 0.10 | 0.10 | 88 | 1018.4 |
| 20260831054518 | 82 | 88 | 3.0 | 8.0 | 0.00 | 0.00 | 0.00 | 81 | 1018.6 |
| 20260831053518 | 83 | 155 | 0.0 | 2.0 | 0.00 | 0.00 | 0.00 | 86 | 1018.2 |
| 20260831052538 | 83 | 173 | 0.0 | 4.0 | 0.00 | 0.00 | 0.00 | 87 | 1018.3 |
| 20260831051518 | 83 | 0.0 | 2.0 | 0.00 | 0.00 | 0.00 | 87 | 1018.3 | |
| 20260831050516 | 83 | 151 | 0.0 | 2.0 | 0.00 | 0.00 | 0.00 | 88 | 1018.3 |
| 20260831045517 | 82 | 0.0 | 0.0 | 0.00 | 0.00 | 0.00 | 88 | 1018.4 | |
| 20260831044517 | 83 | 0.0 | 1.0 | 0.00 | 0.00 | 0.00 | 88 | 1018.3 | |
| 20260831043516 | 82 | 116 | 0.0 | 2.0 | 0.00 | 0.00 | 0.00 | 88 | 1018.2 |
| 20260831042538 | 82 | 96 | 0.0 | 1.0 | 0.00 | 0.00 | 0.00 | 88 | 1018.2 |
| 20260831041516 | 82 | 96 | 0.0 | 1.0 | 0.00 | 0.00 | 0.00 | 88 | 1018.4 |
| 20260831040518 | 83 | 0.0 | 0.0 | 0.00 | 0.00 | 0.00 | 88 | 1018.5 | |
| 20260831035518 | 83 | 96 | 0.0 | 1.0 | 0.00 | 0.00 | 0.00 | 87 | 1018.6 |
| 20260831034517 | 83 | 96 | 0.0 | 1.0 | 0.00 | 0.00 | 0.00 | 86 | 1018.7 |
| 20260831033517 | 83 | 105 | 0.0 | 2.0 | 0.00 | 0.00 | 0.00 | 85 | 1018.8 |
| 20260831032517 | 83 | 145 | 0.0 | 1.0 | 0.00 | 0.00 | 0.00 | 86 | 1018.8 |
| 20260831031517 | 83 | 0.0 | 1.0 | 0.00 | 0.00 | 0.00 | 86 | 1018.7 | |
| 20260831030519 | 83 | 163 | 0.0 | 2.0 | 0.00 | 0.00 | 0.00 | 85 | 1018.7 |
| 20260831025517 | 83 | 91 | 0.0 | 2.0 | 0.00 | 0.00 | 0.00 | 86 | 1018.7 |
| 20260831024518 | 84 | 92 | 0.0 | 6.0 | 0.00 | 0.00 | 0.00 | 86 | 1018.7 |
| 20260831023518 | 83 | 128 | 0.0 | 3.0 | 0.00 | 0.00 | 0.00 | 85 | 1018.6 |
| 20260831022517 | 84 | 126 | 0.0 | 3.0 | 0.00 | 0.00 | 0.00 | 85 | 1018.5 |
| 20260831021518 | 83 | 133 | 0.0 | 3.0 | 0.00 | 0.00 | 0.00 | 85 | 1018.3 |
| 20260831020517 | 83 | 129 | 1.0 | 3.0 | 0.00 | 0.00 | 0.00 | 85 | 1018.3 |
| 20260831015539 | 83 | 114 | 0.0 | 4.0 | 0.00 | 0.00 | 0.00 | 86 | 1018.1 |
| 20260831014519 | 83 | 154 | 0.0 | 3.0 | 0.00 | 0.00 | 0.00 | 86 | 1018.1 |
| 20260831013538 | 83 | 132 | 1.0 | 4.0 | 0.00 | 0.00 | 0.00 | 86 | 1017.9 |
| 20260831012517 | 83 | 176 | 0.0 | 2.0 | 0.00 | 0.00 | 0.00 | 86 | 1017.9 |
| 20260831011518 | 83 | 118 | 0.0 | 3.0 | 0.00 | 0.00 | 0.00 | 86 | 1017.8 |
| 20260831010538 | 83 | 111 | 0.0 | 2.0 | 0.00 | 0.00 | 0.00 | 87 | 1017.8 |
| 20260831005517 | 83 | 133 | 0.0 | 1.0 | 0.00 | 0.00 | 0.00 | 87 | 1017.7 |
| 20260831004517 | 83 | 89 | 0.0 | 1.0 | 0.00 | 0.00 | 0.00 | 87 | 1017.6 |
| 20260831003517 | 83 | 114 | 0.0 | 2.0 | 0.00 | 0.00 | 0.00 | 87 | 1017.7 |
| 20260831002516 | 83 | 111 | 0.0 | 2.0 | 0.00 | 0.00 | 0.00 | 87 | 1017.7 |
| 20260831001519 | 83 | 0.0 | 0.0 | 0.00 | 0.00 | 0.00 | 87 | 1017.8 | |
| 20260831000517 | 83 | 0.0 | 0.0 | 0.00 | 0.00 | 0.00 | 86 | 1017.7 | |
| 20260830235536 | 83 | 110 | 0.0 | 1.0 | 0.00 | 0.00 | 0.00 | 86 | 1017.6 |
| 20260830234517 | 83 | 80 | 0.0 | 2.0 | 0.00 | 0.00 | 0.00 | 86 | 1017.7 |
| 20260830233520 | 84 | 85 | 0.0 | 3.0 | 0.00 | 0.00 | 0.00 | 86 | 1017.6 |
| 20260830232517 | 84 | 84 | 0.0 | 3.0 | 0.00 | 0.00 | 0.00 | 86 | 1017.5 |
| 20260830231519 | 84 | 99 | 0.0 | 4.0 | 0.00 | 0.00 | 0.00 | 86 | 1017.6 |
| 20260830230537 | 84 | 76 | 0.0 | 1.0 | 0.00 | 0.00 | 0.00 | 86 | 1017.6 |
| 20260830225517 | 85 | 80 | 0.0 | 3.0 | 0.00 | 0.00 | 0.00 | 85 | 1017.6 |
| 20260830224517 | 85 | 90 | 0.0 | 2.0 | 0.00 | 0.00 | 0.00 | 85 | 1017.7 |
| 20260830223537 | 85 | 80 | 0.0 | 3.0 | 0.00 | 0.00 | 0.00 | 85 | 1017.6 |
| 20260830222517 | 85 | 90 | 1.0 | 3.0 | 0.00 | 0.00 | 0.00 | 86 | 1017.6 |
| 20260830221519 | 84 | 130 | 0.0 | 3.0 | 0.00 | 0.00 | 0.00 | 86 | 1017.6 |
| 20260830220517 | 84 | 181 | 0.0 | 2.0 | 0.00 | 0.00 | 0.00 | 87 | 1017.8 |
| 20260830215517 | 84 | 124 | 0.0 | 2.0 | 0.00 | 0.00 | 0.00 | 87 | 1017.8 |
| 20260830214536 | 84 | 117 | 0.0 | 3.0 | 0.00 | 0.00 | 0.00 | 88 | 1017.7 |
| 20260830213517 | 84 | 106 | 0.0 | 3.0 | 0.00 | 0.00 | 0.00 | 87 | 1017.6 |
| 20260830212517 | 84 | 97 | 0.0 | 3.0 | 0.00 | 0.00 | 0.00 | 87 | 1017.8 |
| 20260830211517 | 84 | 202 | 0.0 | 2.0 | 0.00 | 0.00 | 0.00 | 88 | 1018.0 |
| 20260830210517 | 83 | 0.0 | 0.0 | 0.00 | 0.00 | 0.00 | 88 | 1018.1 | |
| 20260830205517 | 82 | 206 | 0.0 | 3.0 | 0.00 | 0.00 | 0.00 | 89 | 1018.2 |
| 20260830204517 | 82 | 180 | 0.0 | 2.0 | 0.00 | 0.00 | 0.00 | 89 | 1018.3 |
| 20260830203517 | 81 | 182 | 0.0 | 3.0 | 0.00 | 0.00 | 0.00 | 91 | 1018.4 |
| 20260830202517 | 80 | 115 | 0.0 | 1.0 | 0.00 | 0.00 | 0.00 | 91 | 1018.6 |
| 20260830201527 | 80 | 171 | 1.0 | 5.0 | 0.00 | 0.00 | 0.00 | 87 | 1018.8 |
| 20260830200517 | 83 | 168 | 2.0 | 7.0 | 0.00 | 0.00 | 0.00 | 83 | 1019.0 |
| 20260830195537 | 86 | 177 | 3.0 | 9.0 | 0.00 | 0.00 | 0.00 | 79 | 1019.1 |
| 20260830194517 | 86 | 115 | 1.0 | 7.0 | 0.00 | 0.00 | 0.00 | 83 | 1018.8 |
| 20260830193518 | 86 | 89 | 2.0 | 7.0 | 0.00 | 0.00 | 0.00 | 83 | 1018.8 |
| 20260830192517 | 86 | 82 | 1.0 | 7.0 | 0.00 | 0.00 | 0.00 | 84 | 1018.9 |
| 20260830191537 | 86 | 119 | 1.0 | 5.0 | 0.00 | 0.00 | 0.00 | 83 | 1019.0 |
| 20260830190517 | 86 | 92 | 1.0 | 6.0 | 0.00 | 0.00 | 0.00 | 83 | 1019.1 |
| 20260830185539 | 86 | 117 | 1.0 | 7.0 | 0.00 | 0.00 | 0.00 | 83 | 1019.2 |
| 20260830184517 | 86 | 135 | 1.0 | 5.0 | 0.00 | 0.00 | 0.00 | 83 | 1019.3 |
| 20260830183517 | 85 | 120 | 2.0 | 5.0 | 0.00 | 0.00 | 0.00 | 84 | 1019.5 |
| 20260830182518 | 85 | 70 | 0.0 | 1.0 | 0.00 | 0.00 | 0.00 | 84 | 1019.5 |
| 20260830182017 | 85 | 96 | 1.0 | 7.0 | 0.00 | 0.00 | 0.00 | 84 | 1019.6 |
| 20260830181017 | 85 | 88 | 2.0 | 7.0 | 0.00 | 0.01 | 0.00 | 84 | 1019.9 |
| 20260830180037 | 85 | 107 | 1.0 | 5.0 | 0.00 | 0.03 | 0.00 | 85 | 1020.0 |
| 20260830175017 | 85 | 97 | 1.0 | 6.0 | 0.00 | 0.03 | 0.00 | 85 | 1020.1 |
| 20260830174017 | 86 | 117 | 1.0 | 5.0 | 0.00 | 0.03 | 0.00 | 84 | 1020.2 |
| 20260830173017 | 86 | 150 | 1.0 | 5.0 | 0.00 | 0.03 | 0.00 | 83 | 1020.2 |
| 20260830171517 | 85 | 115 | 1.0 | 7.0 | 0.00 | 0.03 | 0.00 | 85 | 1020.2 |
| 20260830170517 | 85 | 88 | 1.0 | 6.0 | 0.00 | 0.03 | 0.00 | 86 | 1020.4 |
| 20260830165517 | 85 | 97 | 1.0 | 8.0 | 0.00 | 0.03 | 0.00 | 86 | 1020.5 |
| 20260830164517 | 85 | 102 | 2.0 | 7.0 | 0.00 | 0.03 | 0.00 | 85 | 1020.5 |
| 20260830163517 | 85 | 93 | 1.0 | 8.0 | 0.00 | 0.03 | 0.00 | 86 | 1020.2 |
| 20260830162517 | 85 | 90 | 2.0 | 9.0 | 0.00 | 0.03 | 0.00 | 85 | 1020.2 |
| 20260830161517 | 85 | 80 | 2.0 | 7.0 | 0.00 | 0.03 | 0.00 | 85 | 1020.4 |
| 20260830160517 | 84 | 85 | 1.0 | 3.0 | 0.00 | 0.03 | 0.00 | 87 | 1020.7 |
| 20260830155517 | 84 | 106 | 1.0 | 5.0 | 0.00 | 0.03 | 0.00 | 87 | 1020.5 |
| 20260830154557 | 83 | 123 | 0.0 | 3.0 | 0.00 | 0.03 | 0.00 | 87 | 1020.6 |
| 20260830153516 | 83 | 102 | 1.0 | 5.0 | 0.00 | 0.03 | 0.00 | 87 | 1020.6 |
| 20260830152516 | 83 | 85 | 0.0 | 5.0 | 0.00 | 0.03 | 0.00 | 89 | 1020.3 |
| 20260830151516 | 82 | 74 | 0.0 | 2.0 | 0.00 | 0.03 | 0.00 | 89 | 1020.3 |
| 20260830150516 | 82 | 78 | 0.0 | 2.0 | 0.00 | 0.03 | 0.00 | 89 | 1020.3 |
| 20260830145518 | 82 | 84 | 1.0 | 3.0 | 0.00 | 0.03 | 0.00 | 89 | 1020.3 |
| 20260830144516 | 82 | 83 | 0.0 | 3.0 | 0.00 | 0.03 | 0.00 | 89 | 1020.4 |
| 20260830143517 | 82 | 76 | 0.0 | 4.0 | 0.00 | 0.04 | 0.00 | 88 | 1020.3 |
| 20260830142517 | 82 | 84 | 1.0 | 4.0 | 0.00 | 0.04 | 0.00 | 87 | 1020.1 |
| 20260830141517 | 83 | 82 | 1.0 | 5.0 | 0.00 | 0.04 | 0.00 | 86 | 1020.1 |
| 20260830140517 | 84 | 84 | 1.0 | 6.0 | 0.00 | 0.04 | 0.00 | 84 | 1020.3 |
| 20260830135517 | 84 | 86 | 2.0 | 8.0 | 0.00 | 0.04 | 0.00 | 84 | 1020.3 |
| 20260830134516 | 84 | 96 | 1.0 | 8.0 | 0.00 | 0.04 | 0.00 | 85 | 1020.1 |
| 20260830133516 | 83 | 76 | 2.0 | 7.0 | 0.00 | 0.04 | 0.00 | 86 | 1019.8 |
| 20260830132516 | 82 | 83 | 1.0 | 9.0 | 0.00 | 0.04 | 0.00 | 88 | 1019.8 |
| 20260830131516 | 82 | 76 | 2.0 | 6.0 | 0.00 | 0.04 | 0.00 | 88 | 1019.6 |
| 20260830130516 | 82 | 59 | 2.0 | 9.0 | 0.00 | 0.04 | 0.00 | 89 | 1019.6 |
| 20260830125516 | 82 | 69 | 2.0 | 10.0 | 0.00 | 0.04 | 0.00 | 89 | 1019.6 |
| 20260830124516 | 81 | 72 | 1.0 | 6.0 | 0.00 | 0.04 | 0.00 | 90 | 1019.6 |
| 20260830123516 | 80 | 76 | 1.0 | 6.0 | 0.00 | 0.04 | 0.00 | 91 | 1019.7 |
| 20260830122516 | 79 | 79 | 1.0 | 9.0 | 0.00 | 0.04 | 0.00 | 93 | 1019.5 |
| 20260830121516 | 78 | 76 | 1.0 | 6.0 | 0.00 | 0.04 | 0.00 | 94 | 1019.4 |
| 20260830120536 | 78 | 85 | 1.0 | 7.0 | 0.00 | 0.04 | 0.00 | 95 | 1019.3 |
| 20260830115536 | 78 | 73 | 1.0 | 6.0 | 0.00 | 0.04 | 0.00 | 95 | 1019.2 |
| 20260830114516 | 78 | 57 | 0.0 | 4.0 | 0.00 | 0.04 | 0.00 | 95 | 1018.9 |
| 20260830113517 | 78 | 80 | 1.0 | 6.0 | 0.00 | 0.04 | 0.00 | 96 | 1018.7 |
| 20260830112517 | 78 | 73 | 2.0 | 7.0 | 0.00 | 0.04 | 0.00 | 96 | 1018.6 |
| 20260830111516 | 78 | 57 | 0.0 | 4.0 | 0.00 | 0.04 | 0.00 | 96 | 1018.4 |
| 20260830110537 | 78 | 66 | 0.0 | 2.0 | 0.00 | 0.04 | 0.00 | 96 | 1018.4 |